This demonstration page uses our WeatherBlox Daily Observations layout. Learn more.

Left ArrowRight Arrow

39.92423, -83.80882

Hourly Observations for November 18, 2018

Temp ( °F °C ) Dew Point ( °F °C ) Humidity (%) Winds ( mph kmh ) Pressure ( in mb ) Visibility ( mi km ) Precip ( " mm )
12:56 am 00:56 Cloudy with Mist and Fog 35 1.7 34 1.1 96 96 E 5 7 30.27 1025 6 9.65604 N/A
1:56 am 01:56 Cloudy with Mist and Fog 35 1.7 34 1.1 96 96 E 6 9 30.25 1025 5 8.0467 N/A
2:56 am 02:56 Cloudy with Mist and Fog 36 2.2 35 1.7 97 97 E 5 7 30.26 1025 6 9.65604 N/A
3:56 am 03:56 Cloudy 37 2.8 35 1.7 93 93 ESE 9 15 30.24 1024 7 11.26538 N/A
4:56 am 04:56 Cloudy 37 2.8 34 1.1 89 89 E 8 13 30.23 1024 8 12.87472 N/A
5:56 am 05:56 Cloudy 37 2.8 34 1.1 89 89 E 7 11 30.23 1024 7 11.26538 N/A
6:56 am 06:56 Cloudy 37 2.8 35 1.7 93 93 E 7 11 30.23 1024 8 12.87472 N/A
7:56 am 07:56 Cloudy 36 2.2 34 1.1 93 93 ESE 7 11 30.22 1023 7 11.26538 N/A
8:56 am 08:56 Cloudy 38 3.3 35 1.7 89 89 ESE 9 15 30.23 1024 8 12.87472 N/A
9:56 am 09:56 Sunny 42 5.6 37 2.8 82 82 E 5 7 30.22 1023 9 14.48406 N/A
10:56 am 10:56 Sunny 45 7.2 39 3.9 80 80 S 6 9 30.2 1023 10 16.0934 N/A
11:56 am 11:56 Mostly Sunny 48 8.9 40 4.4 74 74 N N/A 30.18 1022 10 16.0934 N/A
12:56 pm 12:56 Cloudy 50 10 41 5 71 71 W 5 7 30.15 1021 10 16.0934 N/A
1:56 pm 13:56 Cloudy 49 9.4 40 4.4 71 71 NW 7 11 30.14 1021 10 16.0934 N/A
2:56 pm 14:56 Cloudy with Haze 46 7.8 39 3.9 77 77 N 9 15 30.14 1021 6 9.65604 N/A
3:06 pm 15:06 Cloudy with Haze 46 8 39 4 76 76 N 7 11 30.15 1021 2.5 4.02335 N/A
3:14 pm 15:14 Cloudy 45 7 39 4 81 81 NNW 7 11 30.15 1021 10 16.0934 N/A
3:53 pm 15:53 Cloudy 45 7 39 4 81 81 N 6 9 30.15 1021 10 16.0934 N/A
3:56 pm 15:56 Cloudy 45 7.2 39 3.9 80 80 N 6 9 30.14 1021 10 16.0934 N/A
4:56 pm 16:56 Cloudy 44 6.7 39 3.9 83 83 N 6 9 30.15 1021 8 12.87472 N/A
5:56 pm 17:56 Cloudy 41 5 38 3.3 89 89 N 9 15 30.16 1021 7 11.26538 N/A
6:56 pm 18:56 Cloudy 41 5 38 3.3 89 89 N 8 13 30.17 1022 7 11.26538 N/A
7:31 pm 19:31 Cloudy with Mist and Fog 39 4 37 3 93 93 NNW 6 9 30.21 1023 5 8.0467 N/A
7:56 pm 19:56 Cloudy with Mist and Fog 40 4.4 38 3.3 93 93 N 8 13 30.18 1022 5 8.0467 N/A
8:51 pm 20:51 Cloudy with Mist and Fog 39 4 37 3 93 93 N 6 9 30.21 1023 6 9.65604 N/A
8:56 pm 20:56 Cloudy with Mist and Fog 39 3.9 37 2.8 93 93 N 8 13 30.18 1022 6 9.65604 N/A
9:40 pm 21:40 Cloudy with Mist and Fog 39 4 36 2 87 87 NNE 6 9 30.21 1023 6 9.65604 N/A
9:56 pm 21:56 Cloudy 39 3.9 36 2.2 89 89 N 6 9 30.17 1022 7 11.26538 N/A
10:28 pm 22:28 Cloudy 37 3 36 2 93 93 N 5 7 30.21 1023 8 12.87472 N/A
10:56 pm 22:56 Cloudy 38 3.3 36 2.2 93 93 N 6 9 30.17 1022 8 12.87472 N/A
11:30 pm 23:30 Cloudy 37 3 36 2 93 93 N 6 9 30.21 1023 7 11.26538 N/A
11:51 pm 23:51 Cloudy with Mist and Fog 37 3 36 2 93 93 N 7 11 30.21 1023 5 8.0467 N/A
11:56 pm 23:56 Cloudy with Mist and Fog 38 3.3 36 2.2 93 93 N 6 9 30.16 1022 5 8.0467 N/A

Powered by AerisWeather